Regional Weather Roundup
Issued by NWS

Home | Current Version | Previous Version | Text Only | Print | Product List | Glossary On
Versions: 1 2 3 4 5 6 7 8 9 10 11 12 13 14 15 16 17 18 19 20 21 22 23 24 25 26 27 28 29 30 31 32 33 34 35 36 37 38 39 40 41 42 43 44 45 46 47 48 49 50
641
ASUS44 KJAN 242210
RWRMS

MISSISSIPPI HOURLY WEATHER ROUNDUP
NATIONAL WEATHER SERVICE JACKSON MS
500 PM CDT FRI OCT 24 2014

NOTE: "FAIR: INDICATES FEW OR NO CLOUDS BELOW 12,000 FEET WITH NO
SIGNIFICANT WEATHER AND/OR OBSTRUCTIONS TO VISIBILITY.

MSZ001>002-007>008-010>013-018>021-025>028-034>036-242300-
NORTHWEST MISSISSIPPI

CITY           SKY/WX    TMP DP  RH WIND       PRES   REMARKS
CLARKSDALE     FAIR      73  54  49 NW3       30.10S
CLEVELAND      FAIR      73  52  47 CALM      30.08F
GREENWOOD      SUNNY     72  49  44 N3        30.08F
GREENVILLE     SUNNY     75  51  43 N7        30.09S
GRENADA          N/A    N/A N/A N/A MISG        N/A
OLIVE BRANCH   MOSUNNY   72  54  53 N6        30.08S
OXFORD           N/A     70  50  49 NW5       30.10S
TUNICA         CLEAR     72  52  49 W5        30.09S
$$

MSZ003>006-009-014>017-022>024-029>033-037>039-242300-
NORTHEAST MISSISSIPPI

CITY           SKY/WX    TMP DP  RH WIND       PRES   REMARKS
COLUMBUS AFB   SUNNY     71  44  37 N6        30.07S
CORINTH        FAIR      72  52  49 NW7       30.06F
GOLDN TRIANGLE SUNNY     73  43  33 NW7       30.06F
STARKVILLE     FAIR      72  43  35 NW3       30.07S
TUPELO         SUNNY     72  45  37 N6        30.07S
$$

MSZ040-058-242300-
CENTRAL MISSISSIPPI

CITY           SKY/WX    TMP DP  RH WIND       PRES   REMARKS
JACKSON INTL   SUNNY     75  42  30 N5        30.08S
JACKSON HAWKNS SUNNY     73  45  36 NW7       30.09S
MERIDIAN KEY   SUNNY     74  39  28 NW7       30.05S
MERIDIAN NAS   SUNNY     74  40  29 N10       30.06S
RAYMOND        FAIR      73  68  83 CALM      30.09S
VICKSBURG      SUNNY     73  44  35 VRB5      30.09F
$$

MSZ059>079-242300-
SOUTH MISSISSIPPI

CITY           SKY/WX    TMP DP  RH WIND       PRES   REMARKS
BROOKHAVEN     FAIR      73  46  38 NW5       30.10R
COLUMBIA         N/A    N/A N/A N/A MISG        N/A
HATTIESBURG    SUNNY     75  45  34 NW9       30.06R
MCCOMB         SUNNY     75  43  31 N8        30.07R
NATCHEZ        SUNNY     72  45  37 N7        30.11S
PINE BELT      SUNNY     75  41  29 N10       30.08R
$$

MSZ080>082-242300-
COASTAL MISSISSIPPI

CITY           SKY/WX    TMP DP  RH WIND       PRES   REMARKS
BAY ST LOUIS   SUNNY     75  39  27 N6        30.03S
BILOXI         SUNNY     76  47  35 N8        30.02R
PASCAGOULA     SUNNY     76  44  32 NW8       30.02R
GULFPORT       SUNNY     77  44  30 N9        30.02R
$$



USA.gov is the U.S. government's official web portal to all federal, state and local government web resources and services.